Wind_Speed
9 9 9 8 7 6 7 6 4 2 2 2 2 3 3 4 5 5 6 6 7 8 9 10 11 11 11 12 12 13 13 14 14 14 14 14 14 15 15 15 16 16 17 17 18 18 19 19 20
9 8 8 7 4 5 4 3 2 2 3 3 4 5 6 6 7 7 8 8 8 9 10 10 11 11 11 12 12 13 13 13 13 14 14 14 14 15 15 16 16 17 17 18 18 19 19 20 21
7 7 6 4 3 5 3 3 3 4 5 6 7 7 8 7 9 9 9 9 9 9 10 10 11 11 11 12 12 12 13 13 13 14 14 14 15 15 16 17 17 17 18 18 19 20 21 21 22
5 5 4 3 3 4 3 4 5 6 8 9 9 9 9 9 9 10 10 9 9 9 10 10 10 11 11 11 11 12 12 13 13 14 14 15 15 15 16 17 17 18 18 19 20 20 21 22 23
4 3 2 3 3 4 5 6 7 8 9 10 10 10 9 10 9 10 10 9 9 9 9 10 10 10 10 11 11 12 12 12 13 13 14 14 15 16 16 17 17 18 19 19 20 21 22 22 23
3 3 3 4 4 5 6 7 9 10 10 10 10 10 9 10 9 9 9 9 9 9 9 10 9 10 10 11 11 12 12 12 13 13 14 15 15 16 17 17 18 19 19 20 21 21 22 23 24
2 3 5 6 6 7 8 9 10 10 11 10 10 10 9 11 9 9 10 9 9 9 9 10 10 10 11 11 11 12 12 13 13 14 15 15 16 17 17 18 19 20 20 21 22 23 23 24 25
2 4 6 7 8 9 9 10 11 11 11 11 11 10 8 11 10 10 10 10 10 10 9 10 11 11 11 12 12 13 13 14 14 15 15 16 16 17 18 19 20 20 21 22 23 24 25 26 27
3 5 7 8 9 10 11 11 12 12 12 12 12 10 9 11 11 11 11 11 11 11 11 11 11 12 12 13 13 13 14 15 15 15 16 16 17 18 18 19 20 21 22 23 24 25 26 27 28
5 6 8 9 11 12 12 13 13 12 13 13 12 11 11 11 12 12 12 13 13 13 13 13 13 13 14 14 14 15 15 16 16 16 17 17 18 19 20 21 22 23 24 25 26 27 28 29 30
7 8 9 11 12 13 13 14 14 14 14 14 13 13 13 13 14 14 14 15 15 15 15 15 15 15 15 16 16 16 17 17 17 18 18 19 20 20 21 22 23 24 25 26 28 29 30 31 32
9 10 11 13 14 15 15 15 16 17 16 15 15 15 14 15 15 16 16 17 18 18 18 18 18 18 18 18 18 19 19 19 20 20 21 21 22 23 24 25 26 27 28 29 30 31 32 33 34
11 12 14 15 15 16 16 18 18 19 17 17 17 17 16 17 18 18 19 20 20 21 21 21 21 21 21 21 21 21 22 22 22 23 23 24 25 26 27 28 29 30 31 32 33 34 35 36 37
13 14 16 16 17 17 17 19 21 20 19 19 19 20 19 19 20 20 21 22 22 23 23 24 24 24 24 24 24 24 25 25 26 27 27 28 29 30 30 31 33 34 35 36 37 38 39 40 42
16 16 17 18 19 18 17 18 23 22 20 20 21 21 22 22 23 23 24 25 25 25 26 26 27 26 27 27 28 28 28 28 29 30 31 32 33 34 34 36 37 38 39 40 42 43 44 45 46
19 19 20 20 19 19 20 19 25 25 23 22 22 23 24 25 25 26 27 27 28 28 28 28 29 29 30 30 31 31 31 31 32 33 34 35 36 37 38 39 41 42 43 44 46 47 48 49 50
22 21 21 23 22 21 22 22 25 28 27 25 25 26 26 27 27 28 29 29 30 30 30 30 31 32 33 33 33 34 34 35 36 36 37 39 40 41 42 43 44 45 46 48 49 51 52 53 53
24 23 24 25 26 25 25 25 26 28 29 28 28 28 28 28 29 30 30 31 31 32 32 33 33 35 36 36 36 36 37 38 39 39 40 42 43 45 46 46 48 49 50 51 53 54 55 56 57
25 25 25 26 27 27 28 29 29 29 30 29 29 29 29 29 30 31 30 31 32 33 34 35 36 37 38 38 38 39 40 41 42 43 44 45 47 48 49 50 51 53 54 55 56 58 59 59 60
26 26 27 27 28 28 27 29 30 29 30 30 29 29 29 30 30 31 31 31 33 34 36 37 38 38 39 40 41 42 43 43 44 45 47 49 50 51 53 54 55 56 57 58 60 61 62 62 62
26 27 27 27 26 27 26 26 29 29 29 29 28 29 29 29 30 30 31 31 33 34 36 38 39 40 41 42 43 44 45 46 47 48 50 52 54 55 56 57 59 60 61 62 63 64 64 64 64
23 25 26 26 26 24 25 24 27 29 29 28 28 28 28 28 29 30 31 31 33 35 36 38 40 41 42 44 45 47 48 48 50 52 53 55 57 58 60 61 62 63 64 65 65 66 66 66 65
22 23 24 24 25 23 24 24 25 28 28 28 29 28 28 28 29 30 31 32 33 35 36 38 40 42 44 46 48 49 50 51 53 55 56 58 59 61 62 63 64 65 66 67 67 68 67 67 66
21 22 23 23 23 23 22 24 25 27 27 29 30 30 29 30 31 31 32 33 34 35 37 39 41 43 45 47 49 51 52 54 56 57 58 60 61 62 63 64 65 66 67 68 69 69 68 67 67
21 22 24 25 24 24 24 24 26 28 29 31 31 31 31 32 32 32 33 34 35 37 38 40 42 44 46 48 50 52 54 55 57 59 61 62 63 64 65 66 67 67 68 68 69 69 68 68 68
21 22 24 26 27 26 24 24 26 30 32 34 34 34 32 32 33 35 36 37 38 39 41 42 44 46 48 49 51 53 55 57 58 60 62 64 65 66 67 68 68 68 68 68 68 68 68 68 68
22 23 25 28 29 30 27 26 27 31 35 36 36 36 35 35 36 38 39 40 41 42 43 45 46 48 50 51 53 54 56 58 59 61 62 64 65 67 68 69 69 68 68 68 68 68 68 68 67
24 25 27 29 32 34 32 30 30 33 35 37 39 40 39 38 38 39 40 41 42 43 45 46 48 49 51 53 54 56 57 59 60 61 63 64 65 67 68 69 69 69 68 68 68 67 67 67 66
24 26 28 30 32 35 37 32 32 34 36 39 41 40 39 39 40 40 41 42 43 45 46 47 49 50 51 53 54 56 57 58 60 61 62 63 64 66 67 67 67 67 67 67 66 65 66 67 67
27 27 29 31 33 34 38 37 33 37 40 43 42 42 42 41 42 42 43 44 45 46 47 48 49 50 51 53 54 55 57 58 59 60 61 63 64 64 64 64 63 64 64 65 65 65 66 66 65
Wind_Direction
110 111 111 114 117 120 91 83 78 67 46 15 347 333 328 327 319 312 311 308 307 303 300 298 296 294 293 292 291 290 290 288 287 286 285 285 285 286 285 285 284 283 283 282 282 282 282 282 281
107 107 109 108 120 93 74 78 53 18 343 325 315 311 310 312 305 304 303 303 302 301 299 298 296 295 294 294 293 293 292 291 290 290 289 289 289 290 289 288 287 286 285 285 284 284 283 283 282
103 103 102 96 85 63 54 25 360 337 320 312 306 303 303 303 298 299 298 298 298 298 297 297 296 296 295 295 295 295 294 294 294 293 293 293 293 292 292 291 290 289 288 287 287 286 285 284 283
97 95 93 83 48 46 16 341 332 318 311 307 304 302 304 300 297 297 297 297 297 297 296 297 297 297 298 298 298 298 298 298 297 297 297 297 296 296 295 294 294 293 292 291 290 289 288 287 286
86 77 57 39 23 7 342 327 317 310 305 303 303 301 302 299 297 296 297 298 298 297 296 297 297 298 298 299 300 301 302 302 302 302 302 301 300 299 298 298 297 296 296 295 294 293 292 291 289
65 36 10 2 5 341 332 325 314 309 306 303 301 301 300 295 296 295 296 297 297 296 296 297 298 299 301 302 304 305 306 306 306 307 306 305 304 303 302 301 300 299 299 298 297 296 295 294 293
22 0 352 348 349 336 333 328 318 313 309 306 301 298 296 292 293 291 293 294 296 297 296 297 300 301 302 304 306 307 308 308 309 309 308 306 306 305 304 303 302 301 300 300 299 298 296 295 294
342 342 339 340 339 332 334 326 320 315 311 305 301 297 293 288 291 288 289 291 294 295 296 297 300 301 303 304 306 307 307 308 309 309 308 308 307 306 305 305 303 303 302 301 300 299 297 296 294
317 327 328 331 332 330 331 325 319 314 310 304 301 299 289 285 287 286 287 289 291 292 294 295 297 299 300 302 304 306 307 307 307 308 308 307 307 307 307 306 306 305 304 303 302 301 299 298 296
302 316 321 324 326 327 327 323 317 311 306 304 302 298 290 285 284 284 284 285 287 289 290 291 293 294 296 298 300 302 303 305 306 306 307 307 307 308 308 308 308 308 307 306 305 304 303 301 299
295 306 313 318 320 321 322 319 315 310 305 305 300 293 288 286 283 283 282 282 284 285 286 288 289 290 291 293 295 296 298 300 302 303 304 305 305 306 306 307 307 307 307 307 307 306 305 304 302
290 300 308 312 315 316 317 314 310 306 304 302 295 291 287 285 284 282 281 281 281 282 283 285 286 287 288 289 290 292 294 295 297 297 299 300 301 302 303 304 304 305 306 306 307 306 306 305 304
287 296 303 307 311 313 314 310 306 302 303 299 295 293 289 285 283 282 281 279 279 280 282 284 284 284 285 286 287 289 290 292 293 294 295 296 297 298 299 300 301 301 302 303 304 304 304 304 304
285 293 299 303 307 311 313 310 304 301 301 298 296 292 289 285 283 281 280 279 278 279 280 281 282 283 284 284 285 286 287 289 290 291 292 293 294 295 296 297 298 299 300 300 301 302 303 303 303
284 291 296 299 304 308 310 311 303 302 302 300 295 291 289 286 284 281 279 279 278 278 279 279 280 282 282 282 283 284 285 287 288 289 290 291 292 293 294 295 296 297 298 299 299 300 301 302 302
282 288 293 294 298 307 309 312 304 303 304 302 297 292 289 287 285 283 281 280 279 279 279 279 280 280 280 281 282 283 284 286 286 288 289 290 291 292 293 294 295 296 297 297 298 299 300 300 301
279 286 293 297 299 305 307 308 304 304 306 304 300 296 293 289 286 284 283 282 281 280 279 279 279 279 279 280 282 283 283 284 286 287 288 289 290 291 292 294 294 295 296 296 297 297 298 299 299
282 288 293 298 301 305 306 305 302 302 303 302 300 298 296 293 290 287 286 284 282 281 279 279 278 278 279 280 281 282 283 284 286 287 288 288 289 291 292 293 294 294 295 295 296 296 297 297 298
282 287 292 295 299 303 306 305 303 302 301 302 301 299 298 296 294 291 289 286 284 282 280 279 279 279 280 281 281 282 283 284 285 286 287 287 288 290 291 292 293 293 294 294 294 295 295 296 297
284 288 292 296 299 302 304 304 304 303 302 303 303 302 301 299 297 295 292 288 285 283 282 281 280 280 281 282 282 283 283 284 285 286 285 286 288 289 290 291 292 292 293 293 294 294 294 295 296
287 291 294 297 299 303 304 304 303 303 303 305 304 304 303 301 299 297 294 291 288 286 284 284 283 282 282 282 283 283 283 284 284 284 284 286 287 289 290 291 291 291 292 293 293 293 294 295 295
290 293 297 299 301 305 306 309 307 307 309 308 307 306 306 304 302 300 297 294 291 289 288 287 285 284 283 283 283 283 283 284 283 283 284 285 287 288 289 290 290 291 292 292 293 293 294 294 295
294 297 300 302 305 307 308 308 309 308 311 309 309 309 308 306 304 301 299 297 294 292 290 288 287 286 285 284 284 284 285 284 284 284 285 286 286 288 289 289 290 290 291 291 292 292 293 294 294
299 301 303 304 305 306 309 310 312 310 310 308 309 311 310 308 305 303 300 298 296 294 291 289 288 287 286 285 285 285 285 284 285 285 286 286 287 287 288 288 289 290 290 291 292 293 293 294 294
302 304 306 307 309 312 315 316 314 311 309 309 310 311 310 309 306 304 301 299 297 295 293 291 290 288 287 287 286 285 285 285 285 285 286 286 287 287 288 288 289 290 290 291 292 293 293 294 294
304 307 309 310 311 311 313 314 313 310 308 309 309 310 310 310 308 306 304 302 300 298 296 294 293 291 289 288 288 287 286 286 286 286 286 287 287 287 288 289 289 290 291 292 292 293 294 294 294
305 306 307 307 307 307 309 310 309 308 309 310 310 311 314 314 311 309 306 304 302 300 298 296 295 293 291 290 289 288 287 287 287 287 287 288 288 289 289 290 291 291 291 292 292 293 293 293 294
303 305 306 306 308 308 310 314 316 314 312 311 310 313 316 315 311 308 307 305 303 301 300 298 297 295 293 292 290 289 288 288 288 288 288 289 289 290 291 291 292 292 292 292 292 293 292 292 293
300 302 304 305 306 307 309 314 318 312 310 308 310 315 315 312 311 310 308 307 306 304 303 301 300 298 296 295 293 292 290 290 289 289 290 290 290 291 291 292 292 293 293 293 293 293 293 293 293
300 303 304 304 306 307 308 313 316 311 309 309 314 315 314 314 313 312 311 310 308 307 306 304 303 301 300 298 296 295 293 292 292 291 291 291 292 292 292 293 294 294 294 294 294 294 294 293 293
Height
5864 5864 5865 5866 5867 5867 5866 5866 5867 5867 5868 5868 5867 5867 5867 5867 5868 5869 5867 5866 5866 5866 5865 5865 5865 5864 5864 5864 5863 5863 5862 5862 5861 5861 5860 5860 5860 5859 5859 5859 5859 5859 5858 5858 5858 5858 5858 5858 5858
5865 5866 5867 5867 5867 5866 5866 5867 5867 5868 5868 5868 5867 5867 5866 5866 5866 5865 5865 5864 5864 5864 5864 5863 5863 5862 5862 5861 5861 5860 5860 5859 5859 5858 5858 5857 5857 5857 5856 5856 5856 5856 5855 5855 5855 5855 5855 5854 5854
5866 5867 5868 5868 5867 5866 5867 5867 5868 5868 5868 5867 5867 5866 5866 5865 5864 5864 5863 5863 5863 5862 5862 5861 5861 5860 5860 5859 5859 5858 5857 5857 5856 5856 5855 5854 5854 5854 5853 5853 5853 5852 5852 5852 5851 5851 5851 5850 5850
5868 5868 5868 5869 5867 5867 5867 5867 5867 5867 5867 5866 5866 5865 5864 5864 5863 5862 5861 5861 5861 5860 5860 5859 5859 5858 5857 5857 5856 5856 5855 5854 5853 5853 5852 5852 5851 5851 5850 5850 5849 5849 5848 5848 5848 5847 5847 5846 5846
5868 5869 5869 5868 5867 5867 5867 5867 5866 5866 5866 5865 5864 5863 5863 5861 5861 5860 5859 5859 5859 5858 5858 5857 5857 5856 5855 5854 5854 5853 5852 5852 5851 5850 5849 5849 5848 5847 5847 5846 5846 5845 5845 5844 5844 5843 5842 5842 5841
5869 5869 5869 5867 5866 5866 5866 5866 5865 5865 5864 5863 5862 5861 5861 5860 5859 5858 5858 5857 5857 5856 5856 5855 5854 5854 5853 5852 5851 5851 5850 5849 5848 5847 5847 5846 5845 5844 5843 5843 5842 5842 5841 5840 5839 5839 5838 5837 5836
5869 5869 5868 5867 5866 5866 5866 5865 5864 5863 5862 5862 5861 5860 5860 5858 5858 5857 5856 5856 5855 5854 5854 5853 5852 5852 5851 5850 5849 5848 5847 5847 5846 5845 5844 5843 5842 5841 5840 5839 5838 5838 5837 5836 5835 5834 5833 5832 5831
5868 5869 5867 5867 5866 5865 5865 5864 5863 5862 5861 5860 5859 5858 5859 5857 5856 5855 5854 5854 5853 5853 5852 5851 5850 5850 5849 5848 5847 5846 5845 5844 5843 5842 5841 5840 5839 5838 5837 5836 5835 5834 5833 5832 5830 5829 5828 5827 5826
5867 5869 5867 5866 5865 5865 5864 5863 5862 5861 5859 5858 5857 5857 5857 5855 5854 5853 5853 5852 5851 5851 5850 5849 5848 5847 5846 5846 5845 5843 5842 5841 5840 5839 5838 5837 5836 5834 5833 5832 5831 5830 5828 5827 5826 5824 5823 5822 5820
5867 5867 5866 5865 5864 5863 5862 5861 5860 5859 5858 5856 5855 5854 5854 5853 5852 5851 5851 5850 5849 5848 5848 5847 5846 5845 5844 5843 5842 5841 5839 5838 5837 5836 5835 5833 5832 5831 5830 5828 5827 5825 5824 5822 5821 5819 5818 5816 5814
5865 5865 5864 5863 5863 5862 5861 5859 5858 5857 5856 5854 5854 5852 5852 5850 5850 5849 5848 5847 5847 5846 5845 5844 5843 5842 5841 5840 5839 5838 5836 5835 5834 5832 5831 5830 5828 5827 5825 5824 5822 5821 5819 5817 5815 5814 5812 5810 5808
5864 5863 5862 5862 5861 5860 5859 5857 5856 5854 5853 5852 5851 5850 5849 5848 5847 5846 5845 5844 5843 5842 5841 5840 5839 5839 5838 5837 5835 5834 5832 5831 5830 5828 5827 5825 5824 5822 5821 5819 5817 5815 5813 5811 5809 5807 5805 5803 5801
5862 5861 5860 5859 5859 5858 5857 5854 5853 5851 5850 5849 5847 5846 5846 5845 5843 5843 5842 5841 5839 5838 5837 5836 5835 5834 5833 5832 5831 5830 5828 5827 5825 5823 5822 5820 5819 5817 5815 5814 5812 5809 5807 5805 5803 5801 5798 5795 5793
5859 5859 5858 5857 5856 5855 5854 5851 5849 5848 5847 5845 5844 5843 5842 5841 5840 5838 5837 5836 5835 5834 5833 5832 5831 5830 5828 5827 5826 5824 5823 5821 5820 5818 5816 5814 5812 5811 5809 5807 5805 5802 5800 5798 5795 5792 5790 5787 5784
5856 5856 5855 5854 5853 5852 5851 5849 5844 5843 5843 5842 5840 5839 5837 5836 5835 5834 5832 5831 5830 5829 5828 5827 5825 5824 5823 5821 5820 5819 5817 5815 5814 5811 5809 5807 5805 5803 5801 5799 5797 5794 5792 5789 5786 5783 5780 5777 5774
5852 5852 5851 5850 5850 5848 5848 5846 5841 5839 5838 5837 5835 5834 5832 5831 5830 5828 5827 5826 5825 5824 5823 5821 5820 5818 5817 5815 5814 5812 5810 5809 5807 5804 5802 5800 5797 5795 5793 5791 5788 5785 5782 5779 5775 5772 5769 5766 5762
5848 5848 5847 5846 5845 5844 5843 5841 5837 5834 5833 5832 5830 5828 5827 5826 5824 5822 5821 5820 5819 5817 5816 5815 5813 5811 5809 5808 5807 5805 5803 5801 5799 5797 5794 5791 5789 5786 5784 5781 5778 5775 5772 5768 5765 5761 5758 5754 5751
5844 5843 5842 5841 5840 5839 5837 5835 5833 5829 5828 5826 5824 5822 5821 5819 5817 5816 5815 5813 5812 5810 5809 5808 5806 5804 5802 5801 5799 5797 5795 5793 5791 5789 5786 5783 5780 5776 5774 5771 5768 5764 5761 5757 5753 5749 5745 5741 5737
5839 5838 5838 5837 5835 5834 5832 5829 5827 5824 5822 5821 5819 5817 5815 5813 5811 5809 5809 5806 5805 5803 5801 5800 5798 5796 5794 5793 5791 5789 5787 5785 5783 5780 5776 5773 5770 5766 5763 5760 5756 5752 5749 5745 5741 5736 5732 5728 5723
5834 5833 5833 5833 5830 5829 5827 5824 5821 5819 5816 5815 5813 5811 5809 5807 5804 5802 5801 5800 5797 5796 5794 5792 5790 5789 5786 5784 5782 5780 5778 5776 5773 5770 5766 5762 5759 5755 5752 5748 5744 5740 5736 5732 5727 5723 5718 5714 5710
5829 5828 5827 5827 5825 5823 5822 5820 5815 5812 5811 5809 5807 5805 5803 5801 5798 5796 5794 5792 5790 5788 5786 5784 5782 5780 5778 5775 5773 5771 5768 5766 5763 5759 5755 5751 5747 5744 5740 5735 5731 5726 5722 5718 5713 5708 5704 5699 5695
5824 5823 5822 5820 5819 5819 5817 5815 5810 5806 5805 5803 5801 5799 5797 5795 5792 5790 5787 5785 5783 5781 5778 5776 5774 5771 5769 5766 5763 5760 5758 5755 5751 5747 5744 5740 5735 5730 5726 5722 5717 5712 5708 5703 5698 5693 5689 5684 5679
5819 5818 5817 5815 5813 5813 5811 5809 5807 5802 5800 5797 5795 5794 5792 5789 5786 5783 5780 5778 5775 5773 5770 5767 5765 5762 5759 5756 5753 5749 5747 5743 5739 5735 5731 5727 5722 5717 5713 5708 5702 5698 5693 5688 5683 5678 5673 5668 5663
5814 5813 5812 5810 5809 5809 5806 5804 5802 5798 5795 5792 5790 5788 5786 5783 5780 5776 5773 5770 5767 5764 5761 5758 5755 5752 5748 5745 5741 5738 5734 5730 5725 5721 5717 5712 5708 5704 5699 5693 5688 5683 5677 5672 5667 5662 5657 5652 5647
5810 5809 5807 5805 5804 5803 5801 5798 5796 5792 5789 5786 5784 5782 5779 5776 5773 5769 5766 5763 5759 5756 5752 5749 5745 5741 5737 5733 5729 5725 5720 5716 5711 5707 5702 5697 5693 5688 5684 5678 5673 5667 5662 5656 5650 5645 5641 5636 5631
5805 5804 5802 5800 5798 5797 5796 5794 5792 5786 5782 5779 5777 5775 5772 5769 5765 5761 5758 5754 5750 5746 5742 5738 5734 5729 5725 5720 5716 5711 5706 5702 5697 5692 5686 5681 5677 5672 5667 5661 5657 5652 5646 5640 5634 5629 5624 5618 5613
5801 5799 5797 5795 5792 5790 5791 5790 5786 5780 5775 5772 5769 5766 5764 5761 5757 5753 5748 5744 5740 5736 5732 5727 5722 5718 5713 5708 5703 5698 5692 5687 5682 5677 5671 5666 5660 5655 5649 5644 5639 5635 5629 5623 5617 5612 5607 5601 5596
5796 5794 5792 5789 5785 5782 5782 5782 5780 5774 5769 5765 5761 5758 5756 5753 5748 5744 5739 5735 5730 5725 5720 5715 5710 5705 5700 5694 5689 5684 5678 5673 5667 5662 5656 5651 5645 5639 5632 5627 5622 5617 5611 5605 5600 5595 5589 5583 5578
5792 5789 5786 5783 5780 5776 5773 5777 5773 5767 5762 5757 5754 5751 5748 5744 5739 5734 5729 5724 5719 5714 5709 5703 5698 5692 5687 5681 5675 5669 5664 5658 5652 5646 5641 5635 5629 5623 5616 5610 5604 5599 5594 5588 5582 5577 5572 5566 5561
5785 5783 5780 5777 5774 5770 5765 5769 5765 5759 5753 5748 5746 5742 5737 5733 5729 5724 5719 5714 5708 5703 5697 5691 5685 5679 5673 5667 5661 5655 5649 5643 5637 5631 5625 5619 5613 5607 5600 5594 5588 5582 5577 5571 5566 5560 5554 5549 5543